Regional Weather Roundup
Issued by NWS

Home | Current Version | Previous Version | Graphics & Text | Print | Product List | Glossary On
Versions: 1 2 3 4 5 6 7 8 9 10 11 12 13 14 15 16 17 18 19 20 21 22 23 24 25 26 27 28 29 30 31 32 33 34 35 36 37 38 39 40 41 42 43 44 45 46 47 48 49 50
000
ASUS43 KDMX 010906
RWRIA

WEATHER ROUNDUP FOR IOWA
NATIONAL WEATHER SERVICE DES MOINES IA
300 AM CST WED MAR 01 2017

NOTE: "FAIR" INDICATES FEW OR NO CLOUDS BELOW 12,000 FEET WITH NO
SIGNIFICANT WEATHER AND/OR OBSTRUCTIONS TO VISIBILITY.

* - THESE STATIONS ARE NOT NWS STATIONS...THUS NOT UNDER NWS
QUALITY CONTROL.  THEY ALSO DO NOT REPORT WEATHER SUCH
AS PRECIPITATION OR FOG.

IAZ001>003-012>014-020>022-031>034-043>046-011000-
   NORTHWEST IOWA

CITY           SKY/WX    TMP DP  RH WIND       PRES   REMARKS
CARROLL *      CLOUDY    34  34 100 NW15      29.74R FOG     WCI  24
CHEROKEE *     CLOUDY    32  32 100 NW8       29.76R WCI  25
DENISON *      CLOUDY    32  32 100 NW15      29.74S FOG     WCI  22
LE MARS *      CLOUDY    32  32 100 W16       29.80R WCI  21
SHELDON *      LGT SNOW  32  32 100 NW13      29.74S WCI  22
SIOUX CITY     CLOUDY    33  31  92 NW18G24   29.80S FOG     WCI  22
SPENCER        CLOUDY    33  31  92 NW16      29.73R WCI  23
STORM LAKE *   CLOUDY    32  32 100 NW15      29.74R FOG     WCI  22
$$

IAZ055>058-069>071-079>083-090>094-011000-
   SOUTHWEST IOWA

CITY           SKY/WX    TMP DP  RH WIND       PRES   REMARKS
ATLANTIC *     CLOUDY    36  34  93 NW16      29.77S WCI  26
AUDUBON *      CLOUDY    34  30  86 NW12G17   29.75S FOG     WCI  25
CLARINDA *     CLOUDY    37  36  93 NW10      29.81R WCI  30
COUNCIL BLFS * CLOUDY    34  34 100 NW18G24   29.80R WCI  23
CRESTON *      CLOUDY    36  36 100 NW20G30   29.74R WCI  25
HARLAN  *      CLOUDY    34  34 100 NW17      29.81R WCI  23
LAMONI         CLOUDY    39  36  89 NW16      29.72R WCI  30
RED OAK *      CLOUDY    37  34  87 NW18      29.79R WCI  27
SHENANDOAH *   CLOUDY    37  36  93 NW13      29.82R WCI  29
$$

IAZ047>049-059>061-072>074-084-011000-
   CENTRAL IOWA

CITY           SKY/WX    TMP DP  RH WIND       PRES   REMARKS
AMES           CLOUDY    36  35  96 NW13      29.68R WCI  27
ANKENY *       CLOUDY    37  34  87 W10G18    29.71R WCI  30
BOONE *        CLOUDY    34  34 100 NW18G24   29.69R FOG     WCI  23
CHARITON *     LGT RAIN  37  37 100 W10       29.68R WCI  30
DES MOINES     CLOUDY    38  35  89 NW15      29.70R WCI  29
GRINNELL*      DRIZZLE   37  36  95 NW15      29.64S WCI  28
KNOXVILLE *    MIX PCPN  39  36  87 W13G18    29.65R WCI  32
MARSHALLTOWN   LGT RAIN  36  36 100 NW12      29.63S FOG     WCI  28
NEWTON *       CLOUDY    37  36  93 NW13      29.65R FOG     WCI  29
PELLA *        DRIZZLE   39  37  93 NW13      29.67R WCI  31
PERRY *        CLOUDY    35  34  96 NW15G21   29.72R FOG     WCI  25
$$

IAZ004>006-015-016-023>025-035-036-011000-
   NORTH CENTRAL IOWA

CITY           SKY/WX    TMP DP  RH WIND       PRES   REMARKS
ALGONA *       CLOUDY    32  32 100 N14G24    29.69R WCI  22
CLARION *      CLOUDY    32  32 100 NW17      29.68R FOG     WCI  21
ESTHERVILLE    CLOUDY    31  30  96 N23       29.70S WCI  18
FORT DODGE *   CLOUDY    32  28  86 NW9       29.71R WCI  24
MASON CITY     CLOUDY    32  31  96 N17       29.65R FOG     WCI  21
FOREST CITY *  CLOUDY    32  32 100 NW16      29.66R FOG     WCI  21
WEBSTER CITY * CLOUDY    34  32  93 NW17      29.67R FOG     WCI  23
IOWA FALLS *   CLOUDY    35  34  96 NW14      29.65S FOG     WCI  26
$$

IAZ007>011-017>019-026>030-037>042-050>054-066-011000-
   NORTHEAST IOWA

CITY           SKY/WX    TMP DP  RH WIND       PRES   REMARKS
CEDAR RAPIDS   LGT RAIN  39  39 100 NW21      29.55F FOG     WCI  29
CHARLES CITY * MIX PCPN  34  34 100 NW13      29.62R WCI  25
CLINTON *      CLOUDY    45  45 100 NW10      29.49F FOG
DECORAH *      CLOUDY    36  36 100 N12       29.56S FOG     WCI  27
DUBUQUE        CLOUDY    40  40 100 N14       29.50F FOG     WCI  32
MONTICELLO *   CLOUDY    43  41  93 NW14      29.52S FOG
OELWEIN *      MIX PCPN  37  37 100 NW13      29.58S WCI  29
WATERLOO       CLOUDY    35  33  92 NW16      29.61R WCI  25
$$

IAZ064-065-067-068-078-011000-
   EAST CENTRAL IOWA

CITY           SKY/WX    TMP DP  RH WIND       PRES   REMARKS
DAVENPORT      FOG       44  44 100 W17       29.51R VSB 3/4
IOWA CITY      CLOUDY    42  39  89 NW15      29.57S FOG
MUSCATINE *    CLOUDY    43  41  93 W15G25    29.56S FOG
QUAD CITIES    CLOUDY    48  46  93 W14       29.50F FOG
$$

IAZ062-063-075>077-085>089-095>099-011000-
   SOUTHEAST IOWA

CITY           SKY/WX    TMP DP  RH WIND       PRES   REMARKS
BURLINGTON     CLOUDY    44  43  96 W14G24    29.55F FOG
FAIRFIELD *    CLOUDY    41  39  93 NW14      29.60S FOG
FORT MADISON * CLOUDY    45  43  93 W21       29.58S FOG
KEOKUK *       CLOUDY    46  45  93 W16G23    29.57R
OTTUMWA        LGT RAIN  40  39  97 NW13      29.62S FOG     WCI  32
WASHINGTON *   MIX PCPN  41  41 100 NW20      29.60R
$$

ABBREVIATIONS USED IN REMARKS
   TC - TEMPERATURES IN CELSIUS
  WCI - WIND CHILL INDEX
   HX - HEAT INDEX
  VSB - VISIBILITY
$$





USA.gov is the U.S. government's official web portal to all federal, state and local government web resources and services.